contact:dominique.lefevre@mio.osupytheas.fr, maurice.libes@osupytheas.fr, didier.mallarino@osupytheas.fr
Project:EMSO http://www.emso-fr.org/EMSO-France
Depth: 2436.0 m
Title:EMSO Ligure Ouest : Data MII capteur MICROCAT
DateTime_Computer,Latitude,Longitude,Temperature,Conductivity,Pressure,DateTime_Instrument
DateTime_Computer,Latitude,Longitude,degC,S m-1,dbar,DateTime_Instrument
2022-10-27T00:03:02Z,42.805,6.029,13.3026,4.60083,2470.684,2022-10-27T02:04:58Z
2022-10-27T00:06:05Z,42.805,6.029,13.3025,4.60074,2470.624,2022-10-27T02:08:02Z
2022-10-27T00:09:08Z,42.805,6.029,13.3024,4.60074,2470.661,2022-10-27T02:11:05Z
2022-10-27T00:12:11Z,42.805,6.029,13.3024,4.60081,2470.61,2022-10-27T02:14:08Z
2022-10-27T00:15:14Z,42.805,6.029,13.3021,4.60084,2470.6,2022-10-27T02:17:11Z
2022-10-27T00:18:17Z,42.805,6.029,13.3021,4.60076,2470.591,2022-10-27T02:20:14Z
2022-10-27T00:21:21Z,42.805,6.029,13.3024,4.60079,2470.6,2022-10-27T02:23:17Z
2022-10-27T00:24:24Z,42.805,6.029,13.3023,4.60073,2470.637,2022-10-27T02:26:20Z
2022-10-27T00:27:27Z,42.805,6.029,13.3023,4.60083,2470.661,2022-10-27T02:29:23Z
2022-10-27T00:30:30Z,42.805,6.029,13.3026,4.60081,2470.646,2022-10-27T02:32:26Z
2022-10-27T00:33:33Z,42.805,6.029,13.3036,4.60087,2470.6,2022-10-27T02:35:29Z
2022-10-27T00:36:36Z,42.805,6.029,13.3026,4.60086,2470.6,2022-10-27T02:38:32Z
2022-10-27T00:39:39Z,42.805,6.029,13.3029,4.60087,2470.6,2022-10-27T02:41:35Z
2022-10-27T00:42:42Z,42.805,6.029,13.3026,4.60079,2470.614,2022-10-27T02:44:38Z
2022-10-27T00:45:45Z,42.805,6.029,13.3025,4.60078,2470.637,2022-10-27T02:47:42Z
2022-10-27T00:48:48Z,42.805,6.029,13.3021,4.60070,2470.6,2022-10-27T02:50:45Z
2022-10-27T00:51:51Z,42.805,6.029,13.3028,4.60082,2470.614,2022-10-27T02:53:48Z
2022-10-27T00:54:54Z,42.805,6.029,13.3021,4.60080,2470.614,2022-10-27T02:56:51Z
2022-10-27T00:57:57Z,42.805,6.029,13.3026,4.60086,2470.6,2022-10-27T02:59:54Z
2022-10-27T01:01:01Z,42.805,6.029,13.3026,4.60086,2470.6,2022-10-27T03:02:57Z
2022-10-27T01:04:04Z,42.805,6.029,13.3026,4.60079,2470.6,2022-10-27T03:06:00Z
2022-10-27T01:07:07Z,42.805,6.029,13.3021,4.60081,2470.6,2022-10-27T03:09:03Z
2022-10-27T01:10:10Z,42.805,6.029,13.3028,4.60077,2470.637,2022-10-27T03:12:06Z
2022-10-27T01:13:13Z,42.805,6.029,13.3029,4.60081,2470.624,2022-10-27T03:15:09Z
2022-10-27T01:16:16Z,42.805,6.029,13.3021,4.60081,2470.614,2022-10-27T03:18:12Z
2022-10-27T01:19:19Z,42.805,6.029,13.3031,4.60089,2470.614,2022-10-27T03:21:15Z
2022-10-27T01:22:22Z,42.805,6.029,13.3020,4.60084,2470.6,2022-10-27T03:24:18Z
2022-10-27T01:25:25Z,42.805,6.029,13.3024,4.60082,2470.577,2022-10-27T03:27:22Z
2022-10-27T01:28:28Z,42.805,6.029,13.3028,4.60097,2470.614,2022-10-27T03:30:25Z
2022-10-27T01:31:31Z,42.805,6.029,13.3024,4.60085,2470.563,2022-10-27T03:33:28Z
2022-10-27T01:34:34Z,42.805,6.029,13.3027,4.60091,2470.591,2022-10-27T03:36:31Z
2022-10-27T01:37:37Z,42.805,6.029,13.3030,4.60080,2470.6,2022-10-27T03:39:34Z
2022-10-27T01:40:41Z,42.805,6.029,13.3026,4.60080,2470.6,2022-10-27T03:42:37Z
2022-10-27T01:43:44Z,42.805,6.029,13.3028,4.60079,2470.591,2022-10-27T03:45:40Z
2022-10-27T01:46:47Z,42.805,6.029,13.3026,4.60074,2470.553,2022-10-27T03:48:43Z
2022-10-27T01:49:50Z,42.805,6.029,13.3021,4.60074,2470.591,2022-10-27T03:51:46Z
2022-10-27T01:52:53Z,42.805,6.029,13.3027,4.60075,2470.577,2022-10-27T03:54:49Z
2022-10-27T01:55:56Z,42.805,6.029,13.3025,4.60081,2470.591,2022-10-27T03:57:52Z
2022-10-27T01:58:59Z,42.805,6.029,13.3026,4.60077,2470.614,2022-10-27T04:00:55Z
2022-10-27T02:02:02Z,42.805,6.029,13.3025,4.60077,2470.553,2022-10-27T04:03:58Z
2022-10-27T02:05:05Z,42.805,6.029,13.3025,4.60082,2470.614,2022-10-27T04:07:02Z
2022-10-27T02:08:08Z,42.805,6.029,13.3021,4.60076,2470.577,2022-10-27T04:10:05Z
2022-10-27T02:11:11Z,42.805,6.029,13.3022,4.60077,2470.553,2022-10-27T04:13:08Z
2022-10-27T02:14:14Z,42.805,6.029,13.3023,4.60074,2470.591,2022-10-27T04:16:11Z
2022-10-27T02:17:17Z,42.805,6.029,13.3024,4.60072,2470.6,2022-10-27T04:19:14Z
2022-10-27T02:20:21Z,42.805,6.029,13.3019,4.60077,2470.591,2022-10-27T04:22:17Z
2022-10-27T02:23:24Z,42.805,6.029,13.3026,4.60074,2470.577,2022-10-27T04:25:20Z
2022-10-27T02:26:27Z,42.805,6.029,13.3026,4.60084,2470.553,2022-10-27T04:28:23Z
2022-10-27T02:29:30Z,42.805,6.029,13.3025,4.60079,2470.637,2022-10-27T04:31:26Z
2022-10-27T02:32:33Z,42.805,6.029,13.3026,4.60075,2470.6,2022-10-27T04:34:29Z
2022-10-27T02:35:36Z,42.805,6.029,13.3031,4.60083,2470.614,2022-10-27T04:37:32Z
2022-10-27T02:38:39Z,42.805,6.029,13.3029,4.60081,2470.577,2022-10-27T04:40:35Z
2022-10-27T02:41:42Z,42.805,6.029,13.3024,4.60086,2470.577,2022-10-27T04:43:39Z
2022-10-27T02:44:45Z,42.805,6.029,13.3021,4.60074,2470.567,2022-10-27T04:46:42Z
2022-10-27T02:47:48Z,42.805,6.029,13.3026,4.60077,2470.591,2022-10-27T04:49:45Z
2022-10-27T02:50:51Z,42.805,6.029,13.3024,4.60075,2470.624,2022-10-27T04:52:48Z
2022-10-27T02:53:54Z,42.805,6.029,13.3024,4.60070,2470.577,2022-10-27T04:55:51Z
2022-10-27T02:56:58Z,42.805,6.029,13.3023,4.60074,2470.577,2022-10-27T04:58:54Z
2022-10-27T03:00:01Z,42.805,6.029,13.3021,4.60069,2470.6,2022-10-27T05:01:57Z
2022-10-27T03:03:04Z,42.805,6.029,13.3023,4.60081,2470.577,2022-10-27T05:05:00Z
2022-10-27T03:06:07Z,42.805,6.029,13.3028,4.60069,2470.577,2022-10-27T05:08:03Z
2022-10-27T03:09:10Z,42.805,6.029,13.3025,4.60079,2470.6,2022-10-27T05:11:06Z
2022-10-27T03:12:13Z,42.805,6.029,13.3025,4.60072,2470.591,2022-10-27T05:14:09Z
2022-10-27T03:15:16Z,42.805,6.029,13.3024,4.60087,2470.577,2022-10-27T05:17:12Z
2022-10-27T03:18:19Z,42.805,6.029,13.3023,4.60077,2470.563,2022-10-27T05:20:15Z
2022-10-27T03:21:22Z,42.805,6.029,13.3024,4.60079,2470.577,2022-10-27T05:23:19Z
2022-10-27T03:24:25Z,42.805,6.029,13.3025,4.60089,2470.577,2022-10-27T05:26:22Z
2022-10-27T03:27:28Z,42.805,6.029,13.3027,4.60078,2470.6,2022-10-27T05:29:25Z
2022-10-27T03:30:31Z,42.805,6.029,13.3026,4.60088,2470.6,2022-10-27T05:32:28Z
2022-10-27T03:33:34Z,42.805,6.029,13.3022,4.60083,2470.591,2022-10-27T05:35:31Z
2022-10-27T03:36:38Z,42.805,6.029,13.3023,4.60072,2470.553,2022-10-27T05:38:34Z
2022-10-27T03:39:41Z,42.805,6.029,13.3029,4.60089,2470.637,2022-10-27T05:41:37Z
2022-10-27T03:42:44Z,42.805,6.029,13.3021,4.60076,2470.6,2022-10-27T05:44:40Z
2022-10-27T03:45:47Z,42.805,6.029,13.3031,4.60087,2470.577,2022-10-27T05:47:43Z
2022-10-27T03:48:50Z,42.805,6.029,13.3028,4.60081,2470.624,2022-10-27T05:50:46Z
2022-10-27T03:51:53Z,42.805,6.029,13.3022,4.60078,2470.624,2022-10-27T05:53:49Z
2022-10-27T03:54:56Z,42.805,6.029,13.3021,4.60070,2470.624,2022-10-27T05:56:52Z
2022-10-27T03:57:59Z,42.805,6.029,13.3033,4.60077,2470.614,2022-10-27T05:59:55Z
2022-10-27T04:01:02Z,42.805,6.029,13.3023,4.60072,2470.637,2022-10-27T06:02:59Z
2022-10-27T04:04:05Z,42.805,6.029,13.3029,4.60080,2470.6,2022-10-27T06:06:02Z
2022-10-27T04:07:08Z,42.805,6.029,13.3028,4.60092,2470.614,2022-10-27T06:09:05Z
2022-10-27T04:10:11Z,42.805,6.029,13.3024,4.60076,2470.624,2022-10-27T06:12:08Z
2022-10-27T04:13:14Z,42.805,6.029,13.3022,4.60077,2470.637,2022-10-27T06:15:11Z
2022-10-27T04:16:18Z,42.805,6.029,13.3023,4.60072,2470.646,2022-10-27T06:18:14Z
2022-10-27T04:19:21Z,42.805,6.029,13.3028,4.60079,2470.624,2022-10-27T06:21:17Z
2022-10-27T04:22:24Z,42.805,6.029,13.3022,4.60087,2470.646,2022-10-27T06:24:20Z
2022-10-27T04:25:27Z,42.805,6.029,13.3022,4.60072,2470.646,2022-10-27T06:27:23Z
2022-10-27T04:28:30Z,42.805,6.029,13.3021,4.60074,2470.646,2022-10-27T06:30:26Z
2022-10-27T04:31:33Z,42.805,6.029,13.3021,4.60085,2470.646,2022-10-27T06:33:29Z
2022-10-27T04:34:36Z,42.805,6.029,13.3021,4.60077,2470.661,2022-10-27T06:36:32Z
2022-10-27T04:37:39Z,42.805,6.029,13.3020,4.60077,2470.6,2022-10-27T06:39:35Z
2022-10-27T04:40:42Z,42.805,6.029,13.3022,4.60072,2470.684,2022-10-27T06:42:39Z
2022-10-27T04:43:45Z,42.805,6.029,13.3028,4.60074,2470.656,2022-10-27T06:45:42Z
2022-10-27T04:46:48Z,42.805,6.029,13.3024,4.60075,2470.646,2022-10-27T06:48:45Z
2022-10-27T04:49:51Z,42.805,6.029,13.3022,4.60074,2470.684,2022-10-27T06:51:48Z
2022-10-27T04:52:54Z,42.805,6.029,13.3023,4.60076,2470.646,2022-10-27T06:54:51Z
2022-10-27T04:55:58Z,42.805,6.029,13.3024,4.60077,2470.637,2022-10-27T06:57:54Z
2022-10-27T04:59:01Z,42.805,6.029,13.3026,4.60072,2470.646,2022-10-27T07:00:57Z
2022-10-27T05:02:04Z,42.805,6.029,13.3027,4.60077,2470.684,2022-10-27T07:04:00Z
2022-10-27T05:05:07Z,42.805,6.029,13.3022,4.60069,2470.693,2022-10-27T07:07:03Z
2022-10-27T05:08:10Z,42.805,6.029,13.3021,4.60086,2470.693,2022-10-27T07:10:06Z
2022-10-27T05:11:13Z,42.805,6.029,13.3028,4.60074,2470.73,2022-10-27T07:13:09Z
2022-10-27T05:14:16Z,42.805,6.029,13.3023,4.60072,2470.684,2022-10-27T07:16:12Z
2022-10-27T05:17:19Z,42.805,6.029,13.3024,4.60072,2470.707,2022-10-27T07:19:15Z
2022-10-27T05:20:22Z,42.805,6.029,13.3019,4.60072,2470.717,2022-10-27T07:22:19Z
2022-10-27T05:23:25Z,42.805,6.029,13.3026,4.60074,2470.67,2022-10-27T07:25:22Z
2022-10-27T05:26:28Z,42.805,6.029,13.3023,4.60070,2470.684,2022-10-27T07:28:25Z
2022-10-27T05:29:31Z,42.805,6.029,13.3025,4.60079,2470.693,2022-10-27T07:31:28Z
2022-10-27T05:32:34Z,42.805,6.029,13.3023,4.60072,2470.74,2022-10-27T07:34:31Z
2022-10-27T05:35:38Z,42.805,6.029,13.3019,4.60067,2470.74,2022-10-27T07:37:34Z
2022-10-27T05:38:41Z,42.805,6.029,13.3025,4.60072,2470.707,2022-10-27T07:40:37Z
2022-10-27T05:41:44Z,42.805,6.029,13.3023,4.60074,2470.717,2022-10-27T07:43:40Z
2022-10-27T05:44:47Z,42.805,6.029,13.3024,4.60072,2470.693,2022-10-27T07:46:43Z
2022-10-27T05:47:50Z,42.805,6.029,13.3026,4.60094,2470.74,2022-10-27T07:49:46Z
2022-10-27T05:50:53Z,42.805,6.029,13.3028,4.60074,2470.73,2022-10-27T07:52:49Z
2022-10-27T05:53:56Z,42.805,6.029,13.3026,4.60077,2470.73,2022-10-27T07:55:52Z
2022-10-27T05:56:59Z,42.805,6.029,13.3026,4.60080,2470.74,2022-10-27T07:58:55Z
2022-10-27T06:00:02Z,42.805,6.029,13.3024,4.60074,2470.73,2022-10-27T08:01:59Z
2022-10-27T06:03:05Z,42.805,6.029,13.3021,4.60076,2470.74,2022-10-27T08:05:02Z
2022-10-27T06:06:08Z,42.805,6.029,13.3025,4.60074,2470.754,2022-10-27T08:08:05Z
2022-10-27T06:09:11Z,42.805,6.029,13.3021,4.60072,2470.777,2022-10-27T08:11:08Z
2022-10-27T06:12:14Z,42.805,6.029,13.3022,4.60074,2470.74,2022-10-27T08:14:11Z
2022-10-27T06:15:18Z,42.805,6.029,13.3021,4.60072,2470.763,2022-10-27T08:17:14Z
2022-10-27T06:18:21Z,42.805,6.029,13.3027,4.60081,2470.754,2022-10-27T08:20:17Z
2022-10-27T06:21:24Z,42.805,6.029,13.3024,4.60075,2470.787,2022-10-27T08:23:20Z
2022-10-27T06:24:27Z,42.805,6.029,13.3023,4.60072,2470.824,2022-10-27T08:26:23Z
2022-10-27T06:27:30Z,42.805,6.029,13.3019,4.60074,2470.754,2022-10-27T08:29:26Z
2022-10-27T06:30:33Z,42.805,6.029,13.3026,4.60072,2470.787,2022-10-27T08:32:29Z
2022-10-27T06:33:36Z,42.805,6.029,13.3022,4.60070,2470.8,2022-10-27T08:35:32Z
2022-10-27T06:36:39Z,42.805,6.029,13.3027,4.60072,2470.787,2022-10-27T08:38:35Z
2022-10-27T06:39:42Z,42.805,6.029,13.3027,4.60094,2470.8,2022-10-27T08:41:39Z
2022-10-27T06:42:45Z,42.805,6.029,13.3021,4.60077,2470.763,2022-10-27T08:44:42Z
2022-10-27T06:45:48Z,42.805,6.029,13.3026,4.60077,2470.81,2022-10-27T08:47:45Z
2022-10-27T06:48:51Z,42.805,6.029,13.3024,4.60070,2470.81,2022-10-27T08:50:48Z
2022-10-27T06:51:55Z,42.805,6.029,13.3024,4.60075,2470.81,2022-10-27T08:53:51Z
2022-10-27T06:54:58Z,42.805,6.029,13.3031,4.60084,2470.777,2022-10-27T08:56:54Z
2022-10-27T06:58:01Z,42.805,6.029,13.3026,4.60087,2470.787,2022-10-27T08:59:57Z
2022-10-27T07:01:04Z,42.805,6.029,13.3025,4.60087,2470.787,2022-10-27T09:03:00Z
2022-10-27T07:04:07Z,42.805,6.029,13.3024,4.60079,2470.787,2022-10-27T09:06:03Z
2022-10-27T07:07:10Z,42.805,6.029,13.3031,4.60099,2470.8,2022-10-27T09:09:06Z
2022-10-27T07:10:13Z,42.805,6.029,13.3029,4.60083,2470.833,2022-10-27T09:12:09Z
2022-10-27T07:13:16Z,42.805,6.029,13.3029,4.60086,2470.833,2022-10-27T09:15:12Z
2022-10-27T07:16:19Z,42.805,6.029,13.3026,4.60082,2470.81,2022-10-27T09:18:15Z
2022-10-27T07:19:22Z,42.805,6.029,13.3043,4.60088,2470.857,2022-10-27T09:21:19Z
2022-10-27T07:22:25Z,42.805,6.029,13.3023,4.60079,2470.871,2022-10-27T09:24:22Z
2022-10-27T07:25:28Z,42.805,6.029,13.3030,4.60091,2470.824,2022-10-27T09:27:25Z
2022-10-27T07:28:31Z,42.805,6.029,13.3031,4.60099,2470.88,2022-10-27T09:30:28Z
2022-10-27T07:31:35Z,42.805,6.029,13.3024,4.60079,2470.847,2022-10-27T09:33:31Z
2022-10-27T07:34:38Z,42.805,6.029,13.3031,4.60094,2470.81,2022-10-27T09:36:34Z
2022-10-27T07:37:41Z,42.805,6.029,13.3036,4.60094,2470.824,2022-10-27T09:39:37Z
2022-10-27T07:40:44Z,42.805,6.029,13.3036,4.60102,2470.833,2022-10-27T09:42:40Z
2022-10-27T07:43:47Z,42.805,6.029,13.3024,4.60087,2470.833,2022-10-27T09:45:43Z
2022-10-27T07:46:50Z,42.805,6.029,13.3029,4.60093,2470.81,2022-10-27T09:48:46Z
2022-10-27T07:49:53Z,42.805,6.029,13.3027,4.60093,2470.871,2022-10-27T09:51:49Z
2022-10-27T07:52:56Z,42.805,6.029,13.3025,4.60088,2470.857,2022-10-27T09:54:52Z
2022-10-27T07:55:59Z,42.805,6.029,13.3024,4.60075,2470.833,2022-10-27T09:57:56Z
2022-10-27T07:59:02Z,42.805,6.029,13.3022,4.60078,2470.847,2022-10-27T10:00:59Z
2022-10-27T08:02:05Z,42.805,6.029,13.3029,4.60097,2470.871,2022-10-27T10:04:02Z
2022-10-27T08:05:08Z,42.805,6.029,13.3031,4.60089,2470.857,2022-10-27T10:07:05Z
2022-10-27T08:08:11Z,42.805,6.029,13.3029,4.60082,2470.833,2022-10-27T10:10:08Z
2022-10-27T08:11:15Z,42.805,6.029,13.3038,4.60103,2470.833,2022-10-27T10:13:11Z
2022-10-27T08:14:18Z,42.805,6.029,13.3036,4.60104,2470.857,2022-10-27T10:16:14Z
2022-10-27T08:17:21Z,42.805,6.029,13.3025,4.60090,2470.81,2022-10-27T10:19:17Z
2022-10-27T08:20:24Z,42.805,6.029,13.3032,4.60105,2470.833,2022-10-27T10:22:20Z
2022-10-27T08:23:27Z,42.805,6.029,13.3021,4.60089,2470.787,2022-10-27T10:25:23Z
2022-10-27T08:26:30Z,42.805,6.029,13.3027,4.60098,2470.787,2022-10-27T10:28:26Z
2022-10-27T08:29:33Z,42.805,6.029,13.3036,4.60099,2470.833,2022-10-27T10:31:29Z
2022-10-27T08:32:36Z,42.805,6.029,13.3038,4.60103,2470.833,2022-10-27T10:34:32Z
2022-10-27T08:35:39Z,42.805,6.029,13.3044,4.60094,2470.857,2022-10-27T10:37:36Z
2022-10-27T08:38:42Z,42.805,6.029,13.3028,4.60087,2470.833,2022-10-27T10:40:39Z
2022-10-27T08:41:45Z,42.805,6.029,13.3041,4.60110,2470.81,2022-10-27T10:43:42Z
2022-10-27T08:44:48Z,42.805,6.029,13.3038,4.60105,2470.857,2022-10-27T10:46:45Z
2022-10-27T08:47:52Z,42.805,6.029,13.3042,4.60098,2470.824,2022-10-27T10:49:48Z
2022-10-27T08:50:55Z,42.805,6.029,13.3029,4.60109,2470.81,2022-10-27T10:52:51Z
2022-10-27T08:53:58Z,42.805,6.029,13.3038,4.60109,2470.81,2022-10-27T10:55:54Z
2022-10-27T08:57:01Z,42.805,6.029,13.3035,4.60092,2470.871,2022-10-27T10:58:57Z
2022-10-27T09:00:04Z,42.805,6.029,13.3034,4.60101,2470.81,2022-10-27T11:02:00Z
2022-10-27T09:03:07Z,42.805,6.029,13.3039,4.60101,2470.833,2022-10-27T11:05:03Z
2022-10-27T09:06:10Z,42.805,6.029,13.3034,4.60102,2470.847,2022-10-27T11:08:06Z
2022-10-27T09:09:13Z,42.805,6.029,13.3026,4.60095,2470.833,2022-10-27T11:11:10Z
2022-10-27T09:12:16Z,42.805,6.029,13.3042,4.60093,2470.847,2022-10-27T11:14:13Z
2022-10-27T09:15:19Z,42.805,6.029,13.3042,4.60095,2470.81,2022-10-27T11:17:16Z
2022-10-27T09:18:22Z,42.805,6.029,13.3033,4.60103,2470.833,2022-10-27T11:20:19Z
2022-10-27T09:21:25Z,42.805,6.029,13.3037,4.60104,2470.833,2022-10-27T11:23:22Z
2022-10-27T09:24:29Z,42.805,6.029,13.3036,4.60117,2470.833,2022-10-27T11:26:25Z
2022-10-27T09:27:32Z,42.805,6.029,13.3031,4.60099,2470.833,2022-10-27T11:29:28Z
2022-10-27T09:30:35Z,42.805,6.029,13.3028,4.60094,2470.833,2022-10-27T11:32:31Z
2022-10-27T09:33:38Z,42.805,6.029,13.3036,4.60095,2470.824,2022-10-27T11:35:34Z
2022-10-27T09:36:41Z,42.805,6.029,13.3036,4.60107,2470.81,2022-10-27T11:38:37Z
2022-10-27T09:39:44Z,42.805,6.029,13.3035,4.60081,2470.81,2022-10-27T11:41:40Z
2022-10-27T09:42:47Z,42.805,6.029,13.3040,4.60098,2470.833,2022-10-27T11:44:43Z
2022-10-27T09:45:50Z,42.805,6.029,13.3033,4.60087,2470.847,2022-10-27T11:47:46Z
2022-10-27T09:48:53Z,42.805,6.029,13.3041,4.60099,2470.787,2022-10-27T11:50:50Z
2022-10-27T09:51:56Z,42.805,6.029,13.3025,4.60097,2470.833,2022-10-27T11:53:53Z
2022-10-27T09:54:59Z,42.805,6.029,13.3032,4.60114,2470.8,2022-10-27T11:56:56Z
2022-10-27T09:58:02Z,42.805,6.029,13.3029,4.60099,2470.833,2022-10-27T11:59:59Z
2022-10-27T10:01:06Z,42.805,6.029,13.3044,4.60103,2470.8,2022-10-27T12:03:02Z
2022-10-27T10:04:09Z,42.805,6.029,13.3026,4.60078,2470.81,2022-10-27T12:06:05Z
2022-10-27T10:07:12Z,42.805,6.029,13.3034,4.60087,2470.81,2022-10-27T12:09:08Z
2022-10-27T10:10:15Z,42.805,6.029,13.3039,4.60125,2470.8,2022-10-27T12:12:11Z
2022-10-27T10:13:18Z,42.805,6.029,13.3036,4.60104,2470.833,2022-10-27T12:15:14Z
2022-10-27T10:16:21Z,42.805,6.029,13.3040,4.60099,2470.8,2022-10-27T12:18:17Z
2022-10-27T10:19:24Z,42.805,6.029,13.3038,4.60107,2470.824,2022-10-27T12:21:20Z
2022-10-27T10:22:27Z,42.805,6.029,13.3039,4.60110,2470.81,2022-10-27T12:24:23Z
2022-10-27T10:25:30Z,42.805,6.029,13.3032,4.60103,2470.787,2022-10-27T12:27:27Z
2022-10-27T10:28:33Z,42.805,6.029,13.3035,4.60104,2470.763,2022-10-27T12:30:30Z
2022-10-27T10:31:36Z,42.805,6.029,13.3032,4.60091,2470.824,2022-10-27T12:33:33Z
2022-10-27T10:34:39Z,42.805,6.029,13.3037,4.60110,2470.754,2022-10-27T12:36:36Z
2022-10-27T10:37:43Z,42.805,6.029,13.3033,4.60104,2470.763,2022-10-27T12:39:39Z
2022-10-27T10:40:46Z,42.805,6.029,13.3033,4.60104,2470.787,2022-10-27T12:42:42Z
2022-10-27T10:43:49Z,42.805,6.029,13.3030,4.60117,2470.787,2022-10-27T12:45:45Z
2022-10-27T10:46:52Z,42.805,6.029,13.3037,4.60114,2470.74,2022-10-27T12:48:48Z
2022-10-27T10:49:55Z,42.805,6.029,13.3038,4.60104,2470.787,2022-10-27T12:51:51Z
2022-10-27T10:52:58Z,42.805,6.029,13.3031,4.60107,2470.773,2022-10-27T12:54:54Z
2022-10-27T10:56:01Z,42.805,6.029,13.3032,4.60102,2470.777,2022-10-27T12:57:57Z
2022-10-27T10:59:04Z,42.805,6.029,13.3034,4.60102,2470.754,2022-10-27T13:01:01Z
2022-10-27T11:02:07Z,42.805,6.029,13.3040,4.60110,2470.763,2022-10-27T13:04:04Z
2022-10-27T11:05:10Z,42.805,6.029,13.3040,4.60115,2470.787,2022-10-27T13:07:07Z
2022-10-27T11:08:13Z,42.805,6.029,13.3033,4.60117,2470.777,2022-10-27T13:10:10Z
2022-10-27T11:11:16Z,42.805,6.029,13.3028,4.60105,2470.74,2022-10-27T13:13:13Z
2022-10-27T11:14:20Z,42.805,6.029,13.3025,4.60074,2470.717,2022-10-27T13:16:16Z
2022-10-27T11:17:23Z,42.805,6.029,13.3029,4.60078,2470.74,2022-10-27T13:19:19Z
2022-10-27T11:20:26Z,42.805,6.029,13.3028,4.60102,2470.763,2022-10-27T13:22:22Z
2022-10-27T11:23:29Z,42.805,6.029,13.3048,4.60104,2470.754,2022-10-27T13:25:25Z
2022-10-27T11:26:32Z,42.805,6.029,13.3028,4.60107,2470.74,2022-10-27T13:28:28Z
2022-10-27T11:29:35Z,42.805,6.029,13.3038,4.60120,2470.777,2022-10-27T13:31:31Z
2022-10-27T11:32:38Z,42.805,6.029,13.3036,4.60094,2470.717,2022-10-27T13:34:34Z
2022-10-27T11:35:41Z,42.805,6.029,13.3029,4.60090,2470.754,2022-10-27T13:37:38Z
2022-10-27T11:38:44Z,42.805,6.029,13.3047,4.60107,2470.754,2022-10-27T13:40:41Z
2022-10-27T11:41:47Z,42.805,6.029,13.3026,4.60087,2470.74,2022-10-27T13:43:44Z
2022-10-27T11:44:50Z,42.805,6.029,13.3026,4.60081,2470.777,2022-10-27T13:46:47Z
2022-10-27T11:47:53Z,42.805,6.029,13.3027,4.60099,2470.754,2022-10-27T13:49:50Z
2022-10-27T11:50:57Z,42.805,6.029,13.3031,4.60109,2470.754,2022-10-27T13:52:53Z
2022-10-27T11:54:00Z,42.805,6.029,13.3041,4.60088,2470.73,2022-10-27T13:55:56Z
2022-10-27T11:57:03Z,42.805,6.029,13.3040,4.60102,2470.717,2022-10-27T13:58:59Z
2022-10-27T12:00:06Z,42.805,6.029,13.3031,4.60113,2470.717,2022-10-27T14:02:02Z
2022-10-27T12:03:09Z,42.805,6.029,13.3032,4.60117,2470.717,2022-10-27T14:05:05Z
2022-10-27T12:06:12Z,42.805,6.029,13.3040,4.60108,2470.707,2022-10-27T14:08:08Z
2022-10-27T12:09:15Z,42.805,6.029,13.3036,4.60109,2470.754,2022-10-27T14:11:11Z
2022-10-27T12:12:18Z,42.805,6.029,13.3026,4.60119,2470.73,2022-10-27T14:14:15Z
2022-10-27T12:15:21Z,42.805,6.029,13.3031,4.60107,2470.73,2022-10-27T14:17:18Z
2022-10-27T12:18:24Z,42.805,6.029,13.3043,4.60110,2470.717,2022-10-27T14:20:21Z
2022-10-27T12:21:27Z,42.805,6.029,13.3034,4.60099,2470.74,2022-10-27T14:23:24Z
2022-10-27T12:24:30Z,42.805,6.029,13.3031,4.60103,2470.693,2022-10-27T14:26:27Z
2022-10-27T12:27:34Z,42.805,6.029,13.3024,4.60098,2470.717,2022-10-27T14:29:30Z
2022-10-27T12:30:37Z,42.805,6.029,13.3021,4.60084,2470.717,2022-10-27T14:32:33Z
2022-10-27T12:33:40Z,42.805,6.029,13.3022,4.60078,2470.693,2022-10-27T14:35:36Z
2022-10-27T12:36:43Z,42.805,6.029,13.3022,4.60079,2470.74,2022-10-27T14:38:39Z
2022-10-27T12:39:46Z,42.805,6.029,13.3026,4.60080,2470.684,2022-10-27T14:41:42Z
2022-10-27T12:42:49Z,42.805,6.029,13.3030,4.60081,2470.717,2022-10-27T14:44:45Z
2022-10-27T12:45:52Z,42.805,6.029,13.3036,4.60081,2470.693,2022-10-27T14:47:48Z
2022-10-27T12:48:55Z,42.805,6.029,13.3022,4.60074,2470.707,2022-10-27T14:50:52Z
2022-10-27T12:51:58Z,42.805,6.029,13.3041,4.60117,2470.67,2022-10-27T14:53:55Z
2022-10-27T12:55:01Z,42.805,6.029,13.3041,4.60116,2470.67,2022-10-27T14:56:58Z
2022-10-27T12:58:04Z,42.805,6.029,13.3039,4.60122,2470.717,2022-10-27T15:00:01Z
2022-10-27T13:01:07Z,42.805,6.029,13.3043,4.60109,2470.693,2022-10-27T15:03:04Z
2022-10-27T13:04:11Z,42.805,6.029,13.3031,4.60122,2470.67,2022-10-27T15:06:07Z
2022-10-27T13:07:14Z,42.805,6.029,13.3041,4.60108,2470.661,2022-10-27T15:09:10Z
2022-10-27T13:10:17Z,42.805,6.029,13.3030,4.60113,2470.646,2022-10-27T15:12:13Z
2022-10-27T13:13:20Z,42.805,6.029,13.3037,4.60120,2470.693,2022-10-27T15:15:16Z
2022-10-27T13:16:23Z,42.805,6.029,13.3042,4.60114,2470.646,2022-10-27T15:18:19Z
2022-10-27T13:19:26Z,42.805,6.029,13.3041,4.60123,2470.67,2022-10-27T15:21:22Z
2022-10-27T13:22:29Z,42.805,6.029,13.3038,4.60114,2470.684,2022-10-27T15:24:25Z
2022-10-27T13:25:32Z,42.805,6.029,13.3035,4.60122,2470.684,2022-10-27T15:27:29Z
2022-10-27T13:28:35Z,42.805,6.029,13.3041,4.60106,2470.646,2022-10-27T15:30:32Z
2022-10-27T13:31:38Z,42.805,6.029,13.3046,4.60103,2470.624,2022-10-27T15:33:35Z
2022-10-27T13:34:41Z,42.805,6.029,13.3045,4.60127,2470.646,2022-10-27T15:36:38Z
2022-10-27T13:37:44Z,42.805,6.029,13.3028,4.60122,2470.661,2022-10-27T15:39:41Z
2022-10-27T13:40:48Z,42.805,6.029,13.3032,4.60120,2470.67,2022-10-27T15:42:44Z
2022-10-27T13:43:51Z,42.805,6.029,13.3034,4.60093,2470.684,2022-10-27T15:45:47Z
2022-10-27T13:46:54Z,42.805,6.029,13.3031,4.60095,2470.646,2022-10-27T15:48:50Z
2022-10-27T13:49:57Z,42.805,6.029,13.3040,4.60119,2470.684,2022-10-27T15:51:53Z
2022-10-27T13:53:00Z,42.805,6.029,13.3045,4.60107,2470.684,2022-10-27T15:54:56Z
2022-10-27T13:56:03Z,42.805,6.029,13.3043,4.60119,2470.624,2022-10-27T15:57:59Z
2022-10-27T13:59:06Z,42.805,6.029,13.3031,4.60106,2470.661,2022-10-27T16:01:02Z
2022-10-27T14:02:09Z,42.805,6.029,13.3029,4.60087,2470.624,2022-10-27T16:04:06Z
2022-10-27T14:05:12Z,42.805,6.029,13.3036,4.60115,2470.661,2022-10-27T16:07:09Z
2022-10-27T14:08:15Z,42.805,6.029,13.3022,4.60102,2470.646,2022-10-27T16:10:12Z
2022-10-27T14:11:18Z,42.805,6.029,13.3039,4.60113,2470.67,2022-10-27T16:13:15Z
2022-10-27T14:14:21Z,42.805,6.029,13.3039,4.60108,2470.637,2022-10-27T16:16:18Z
2022-10-27T14:17:25Z,42.805,6.029,13.3035,4.60112,2470.637,2022-10-27T16:19:21Z
2022-10-27T14:20:28Z,42.805,6.029,13.3051,4.60102,2470.646,2022-10-27T16:22:24Z
2022-10-27T14:23:31Z,42.805,6.029,13.3041,4.60121,2470.661,2022-10-27T16:25:27Z
2022-10-27T14:26:34Z,42.805,6.029,13.3038,4.60116,2470.67,2022-10-27T16:28:30Z
2022-10-27T14:29:37Z,42.805,6.029,13.3048,4.60105,2470.646,2022-10-27T16:31:33Z
2022-10-27T14:32:40Z,42.805,6.029,13.3039,4.60122,2470.624,2022-10-27T16:34:36Z
2022-10-27T14:35:43Z,42.805,6.029,13.3037,4.60114,2470.661,2022-10-27T16:37:39Z
2022-10-27T14:38:46Z,42.805,6.029,13.3043,4.60119,2470.624,2022-10-27T16:40:43Z
2022-10-27T14:41:49Z,42.805,6.029,13.3040,4.60117,2470.624,2022-10-27T16:43:46Z
2022-10-27T14:44:52Z,42.805,6.029,13.3032,4.60119,2470.624,2022-10-27T16:46:49Z
2022-10-27T14:47:55Z,42.805,6.029,13.3043,4.60087,2470.624,2022-10-27T16:49:52Z
2022-10-27T14:50:58Z,42.805,6.029,13.3039,4.60100,2470.637,2022-10-27T16:52:55Z
2022-10-27T14:54:02Z,42.805,6.029,13.3041,4.60106,2470.661,2022-10-27T16:55:58Z
2022-10-27T14:57:05Z,42.805,6.029,13.3034,4.60099,2470.661,2022-10-27T16:59:01Z
2022-10-27T15:00:08Z,42.805,6.029,13.3034,4.60112,2470.624,2022-10-27T17:02:04Z
2022-10-27T15:03:11Z,42.805,6.029,13.3031,4.60114,2470.624,2022-10-27T17:05:07Z